Wind_Speed
46 49 53 53 54 58 60 62 63 67 68 70 70 71 72 78 78 79 79 80 77 78 82 87 91 95 101 103 104 107 109 111 112 113 119 121 125 129 127 124 122 120 120
47 51 54 51 52 58 59 61 63 62 65 68 70 73 76 78 76 77 77 80 82 87 91 94 98 100 102 104 107 110 113 117 120 120 121 125 127 122 123 120 119 119 118
36 41 46 41 51 55 59 60 61 63 65 67 68 69 69 71 73 75 80 83 87 91 97 100 101 103 106 109 112 115 118 121 124 127 127 123 121 123 120 122 121 116 111
37 42 41 43 50 53 61 61 62 60 60 60 60 63 68 71 74 77 80 86 92 95 98 101 104 107 110 113 116 119 122 125 128 126 122 122 121 121 124 126 120 116 107
44 40 43 48 54 56 57 56 54 52 52 58 62 66 70 73 77 83 87 90 94 97 101 103 107 110 113 116 118 120 123 124 120 122 119 120 122 126 127 125 118 107 105
41 46 51 56 58 61 61 60 60 61 62 64 68 70 73 77 80 86 90 93 96 99 103 107 112 115 115 117 117 117 116 116 115 117 116 119 121 125 123 118 111 106 99
40 44 51 55 58 58 60 62 63 66 69 72 75 78 80 83 86 90 94 97 99 102 103 106 109 112 112 110 108 108 111 114 117 119 121 122 122 121 117 111 107 101 97
45 46 47 48 50 54 57 61 64 67 69 72 75 77 79 82 86 91 96 98 99 102 106 107 106 104 105 107 106 107 109 113 116 119 123 122 118 116 113 108 102 96 89
44 44 44 46 47 49 51 56 60 64 68 73 78 83 86 88 91 96 100 103 105 102 103 98 97 101 104 107 107 109 111 114 117 121 119 118 114 113 109 103 98 90 83
53 50 49 48 50 52 54 56 62 67 72 76 80 82 84 86 88 87 88 88 88 89 91 95 99 101 104 107 110 111 112 115 115 113 113 113 110 105 102 98 90 84 77
57 56 56 58 61 62 63 68 72 70 72 75 79 77 78 80 77 81 84 86 86 90 93 97 100 103 106 108 111 114 114 112 110 108 107 107 104 99 95 91 85 78 72
61 62 63 64 66 70 72 72 74 74 79 79 79 79 80 81 79 82 86 87 90 93 96 98 101 104 106 109 112 113 110 108 106 104 103 102 99 94 88 81 78 76 69
65 66 67 70 74 76 77 77 77 80 81 82 84 89 87 85 83 85 88 92 95 97 98 101 102 104 107 109 111 109 109 107 103 100 97 95 93 87 82 77 72 66 63
68 69 71 74 78 80 81 81 83 85 87 91 92 96 93 93 92 92 94 97 99 101 103 104 106 109 109 109 108 109 107 104 100 95 91 88 87 82 76 70 66 62 58
73 74 78 80 82 85 84 85 88 90 96 98 99 98 95 95 97 99 102 104 104 105 106 107 108 110 110 109 108 105 103 100 97 93 87 81 81 77 71 65 62 59 56
76 78 82 84 86 88 90 92 94 97 100 101 102 99 98 101 104 105 107 109 108 108 108 110 110 108 108 105 101 99 98 96 93 90 85 75 75 73 68 62 59 55 52
80 81 85 88 93 96 96 99 100 104 104 106 104 102 103 105 110 109 111 112 111 111 113 111 108 106 103 100 96 93 92 91 87 84 81 76 69 69 64 59 54 51 47
83 86 89 93 99 101 102 105 107 107 107 107 106 106 107 113 117 114 113 112 116 116 111 108 106 102 98 95 92 90 87 84 82 79 77 74 68 62 59 55 50 46 44
93 95 98 101 103 104 109 109 111 111 112 111 110 109 112 113 115 115 115 116 115 113 110 106 102 97 94 91 87 84 82 79 77 75 70 67 63 58 53 50 47 43 42
96 100 103 107 107 111 112 115 115 115 113 112 115 116 116 115 114 116 114 111 108 106 103 99 96 94 90 86 83 80 78 74 71 67 64 61 58 54 50 46 44 41 40
101 105 109 109 111 115 117 116 116 115 114 118 118 117 116 117 116 114 112 109 104 102 98 95 92 89 85 82 79 75 72 70 67 63 60 55 52 49 46 42 40 38 37
106 108 108 113 117 119 117 115 115 117 120 119 118 116 114 114 113 110 107 104 100 97 93 90 87 84 81 78 74 71 69 65 62 58 54 50 47 45 42 39 37 36 34
106 108 115 117 114 113 114 117 120 120 118 117 116 115 114 110 106 103 100 97 94 91 88 85 82 80 77 74 71 67 63 59 56 52 49 47 44 41 38 36 35 33 31
111 115 115 114 114 116 119 119 117 116 116 115 114 110 106 103 100 97 94 91 88 86 83 80 78 76 73 69 64 60 57 54 51 47 45 42 39 38 35 34 32 30 29
113 112 114 115 116 117 117 115 115 114 112 109 105 103 100 96 93 90 87 85 83 80 77 75 73 70 67 62 58 54 51 48 45 43 41 38 36 34 33 31 29 29 28
112 113 114 115 114 114 113 112 111 108 104 102 99 96 92 89 86 84 82 79 77 75 72 69 66 63 59 55 51 48 46 44 41 39 37 35 33 32 30 29 28 27 26
Wind_Direction
268 269 268 269 272 271 273 275 277 277 279 280 281 282 282 282 285 287 289 290 291 293 295 296 298 300 301 300 301 301 301 302 303 305 305 306 308 309 309 309 309 309 310
272 272 272 275 273 276 275 275 278 279 281 281 281 281 281 285 289 290 291 294 296 297 299 299 298 298 299 299 299 300 301 303 304 304 305 307 307 307 307 307 308 309 310
276 278 277 275 272 272 273 276 279 282 283 283 283 283 284 286 287 290 292 293 295 293 293 296 297 297 297 298 299 301 302 302 304 306 308 307 308 308 308 308 309 311 311
274 268 277 265 264 272 278 281 283 285 286 285 285 284 285 287 289 290 289 288 289 292 293 294 295 296 298 299 300 301 303 304 305 306 307 308 308 308 310 310 312 312 313
275 272 259 260 277 282 282 284 285 286 287 284 283 285 286 286 286 286 288 290 290 291 292 294 296 297 297 298 299 301 303 304 306 307 307 309 309 309 310 310 311 312 312
270 272 274 278 282 284 288 290 290 288 287 284 284 284 284 285 286 287 288 289 290 291 292 294 295 297 297 298 303 303 304 304 304 305 307 307 308 308 308 310 311 312 312
296 292 285 281 281 285 286 286 287 287 288 288 288 288 288 288 288 288 288 290 292 294 296 296 296 299 301 301 302 303 304 305 305 306 306 308 308 308 308 311 312 313 312
310 307 306 298 292 289 289 289 290 290 289 288 288 288 289 290 290 291 292 293 294 295 295 297 299 300 300 302 302 303 303 304 305 306 307 308 309 308 310 311 312 312 311
305 304 308 305 298 301 298 293 290 287 288 291 291 291 292 293 293 292 292 292 293 296 298 299 298 299 301 301 302 303 305 306 307 308 308 308 308 309 310 311 312 311 311
312 308 308 309 306 306 304 304 300 297 297 298 298 296 295 294 295 298 299 299 299 299 299 299 300 300 300 302 303 304 306 306 307 307 307 306 307 308 309 310 311 310 309
311 310 309 308 308 307 305 308 310 308 306 304 303 300 300 300 302 301 300 299 300 299 299 299 300 302 303 304 305 306 307 307 306 306 306 305 307 308 309 310 309 308 308
309 309 309 309 310 311 309 307 308 309 307 307 307 309 306 304 303 303 301 300 300 300 301 302 303 304 305 306 306 307 307 307 307 307 307 308 308 308 308 308 308 308 307
306 306 308 309 309 310 309 308 309 309 312 313 313 313 310 305 306 305 304 304 304 303 303 303 304 306 307 308 308 309 308 308 308 308 308 307 307 307 308 308 307 306 305
305 306 306 307 308 308 310 307 308 312 315 315 314 313 311 310 308 306 306 306 305 305 306 306 307 308 309 310 309 309 309 308 307 307 307 307 306 307 307 307 306 305 304
303 304 305 306 308 310 308 307 314 315 314 313 311 310 308 308 308 308 308 306 306 306 307 308 310 310 310 310 310 309 309 308 308 307 307 308 307 306 306 306 305 304 303
302 303 306 308 309 308 309 315 315 313 311 311 310 309 308 308 307 307 307 307 307 308 310 311 310 310 310 309 309 309 308 307 307 307 307 308 307 306 305 305 303 302 300
302 305 306 306 309 312 312 314 313 312 310 310 309 308 307 308 307 308 308 308 309 311 311 311 310 310 309 309 308 308 307 306 306 306 307 307 306 305 303 302 301 299 298
305 305 306 309 311 312 312 311 309 308 307 307 307 307 307 308 307 308 309 310 311 310 310 310 310 309 309 308 307 307 306 305 306 306 306 307 306 304 302 301 299 298 296
308 311 310 309 309 308 307 306 306 306 307 307 307 306 306 306 306 308 310 310 309 309 309 310 309 309 308 307 306 306 306 306 306 306 306 305 304 302 300 299 297 296 293
306 305 305 306 306 305 304 305 306 306 306 306 305 306 306 308 309 309 310 309 309 309 309 309 308 308 307 307 306 306 306 306 305 305 304 303 302 300 298 297 295 293 291
301 302 303 303 303 303 303 303 303 304 304 305 306 307 308 309 309 309 309 309 309 309 309 308 308 307 307 307 306 307 307 306 305 304 302 302 299 298 296 295 293 290 289
300 301 302 302 302 302 302 303 304 304 305 305 305 307 308 308 308 308 308 308 308 308 307 307 307 307 307 306 307 307 306 305 303 302 301 300 298 296 295 293 290 288 287
300 300 301 301 301 302 303 303 303 303 304 306 307 307 308 308 308 307 307 307 307 307 307 307 307 307 306 307 307 306 305 304 302 301 300 298 297 295 294 291 288 287 284
299 299 300 301 302 302 302 302 303 305 307 307 307 307 307 307 307 307 307 307 306 306 306 307 307 306 306 306 306 305 304 302 301 300 299 297 296 294 292 289 287 284 281
299 300 301 301 301 302 303 305 306 307 306 306 306 306 306 306 306 307 306 306 306 306 306 306 306 305 306 306 305 304 303 302 301 299 298 297 295 293 290 288 285 281 279
300 300 301 302 303 304 306 307 306 306 306 306 306 306 306 306 306 306 306 306 306 306 306 306 305 305 305 305 304 303 302 301 299 298 297 295 293 291 289 286 282 279 275
Height
10569 10568 10564 10565 10564 10560 10557 10553 10548 10543 10541 10537 10532 10526 10521 10511 10508 10502 10495 10487 10482 10475 10466 10456 10446 10436 10426 10413 10401 10388 10377 10366 10362 10355 10335 10318 10301 10284 10268 10252 10239 10223 10210
10561 10558 10554 10555 10549 10545 10541 10537 10533 10530 10526 10522 10518 10512 10505 10496 10491 10484 10477 10469 10462 10452 10442 10434 10426 10415 10404 10393 10381 10369 10355 10339 10327 10324 10311 10295 10277 10261 10245 10229 10218 10205 10183
10552 10548 10543 10544 10536 10531 10527 10522 10520 10515 10512 10507 10502 10496 10489 10482 10475 10469 10461 10452 10443 10434 10424 10414 10404 10393 10381 10367 10355 10342 10329 10315 10299 10286 10281 10265 10249 10229 10216 10199 10184 10174 10158
10540 10537 10533 10526 10522 10520 10513 10509 10504 10501 10496 10491 10486 10481 10473 10467 10460 10452 10445 10437 10426 10416 10405 10394 10382 10369 10357 10343 10330 10316 10302 10287 10272 10259 10247 10236 10218 10202 10185 10164 10156 10140 10128
10524 10525 10521 10517 10513 10503 10500 10496 10491 10487 10482 10476 10470 10464 10458 10450 10444 10435 10428 10417 10406 10395 10383 10371 10358 10345 10333 10320 10309 10297 10280 10263 10248 10234 10220 10208 10189 10170 10154 10142 10129 10119 10104
10511 10507 10504 10499 10494 10488 10483 10479 10474 10469 10465 10459 10453 10448 10440 10434 10426 10415 10406 10394 10383 10372 10360 10348 10334 10321 10309 10297 10287 10272 10255 10240 10229 10213 10204 10188 10174 10151 10135 10119 10105 10091 10080
10499 10494 10490 10484 10478 10473 10468 10463 10458 10452 10446 10441 10434 10427 10419 10412 10405 10393 10382 10372 10362 10349 10338 10325 10311 10297 10284 10274 10264 10250 10235 10217 10198 10186 10172 10161 10145 10125 10110 10095 10080 10068 10052
10485 10480 10474 10468 10463 10458 10454 10449 10443 10438 10431 10423 10414 10406 10397 10389 10382 10369 10357 10348 10337 10326 10314 10301 10289 10276 10261 10251 10243 10231 10215 10195 10180 10165 10145 10128 10114 10099 10083 10070 10058 10046 10030
10473 10469 10462 10456 10451 10446 10440 10434 10427 10420 10412 10404 10395 10386 10377 10371 10361 10348 10335 10325 10314 10305 10292 10278 10267 10256 10241 10227 10215 10203 10191 10172 10155 10135 10117 10097 10087 10071 10056 10045 10033 10023 10011
10459 10454 10449 10444 10439 10432 10426 10419 10410 10403 10394 10384 10374 10365 10356 10350 10338 10325 10312 10301 10293 10283 10270 10257 10243 10231 10219 10203 10189 10175 10165 10148 10132 10116 10096 10076 10062 10050 10035 10022 10013 10002 9993
10444 10439 10433 10427 10422 10416 10408 10400 10392 10383 10375 10364 10354 10345 10334 10323 10318 10304 10290 10279 10273 10261 10249 10236 10221 10207 10193 10178 10161 10146 10133 10121 10106 10089 10071 10053 10039 10028 10015 10001 9990 9982 9973
10430 10424 10417 10410 10404 10396 10390 10381 10374 10366 10355 10344 10331 10321 10311 10300 10295 10283 10268 10257 10247 10237 10224 10210 10197 10181 10167 10152 10135 10119 10105 10091 10077 10061 10044 10028 10015 10004 9994 9986 9974 9959 9952
10414 10408 10400 10393 10385 10377 10372 10362 10352 10344 10333 10322 10308 10296 10288 10276 10270 10257 10245 10233 10221 10209 10198 10185 10172 10156 10141 10126 10108 10091 10075 10061 10048 10035 10021 10007 9993 9983 9973 9965 9955 9948 9936
10398 10391 10383 10376 10369 10359 10351 10341 10332 10319 10308 10298 10288 10275 10263 10251 10241 10232 10220 10208 10196 10182 10169 10156 10142 10126 10110 10096 10082 10064 10046 10031 10020 10011 10000 9987 9972 9962 9953 9946 9936 9929 9922
10381 10373 10365 10357 10348 10339 10330 10322 10307 10295 10284 10275 10265 10254 10242 10229 10216 10205 10194 10180 10170 10156 10141 10127 10112 10098 10083 10068 10053 10037 10020 10006 9992 9981 9973 9966 9952 9941 9933 9926 9919 9912 9905
10362 10354 10345 10335 10328 10320 10308 10294 10285 10274 10264 10251 10240 10228 10217 10204 10190 10181 10168 10152 10140 10126 10111 10098 10086 10072 10056 10042 10029 10015 9996 9981 9969 9957 9946 9943 9933 9921 9913 9908 9902 9896 9890
10343 10335 10325 10316 10305 10293 10282 10270 10259 10249 10237 10224 10213 10202 10189 10178 10161 10153 10140 10123 10107 10094 10081 10068 10055 10041 10027 10014 10001 9988 9975 9959 9948 9936 9925 9916 9914 9903 9896 9890 9886 9881 9876
10321 10314 10303 10291 10279 10266 10255 10246 10237 10228 10216 10204 10190 10177 10166 10148 10127 10120 10108 10092 10077 10062 10051 10039 10026 10012 9999 9987 9974 9961 9950 9938 9926 9916 9906 9897 9890 9884 9877 9872 9869 9865 9861
10293 10283 10274 10265 10255 10245 10235 10224 10212 10199 10186 10173 10160 10152 10143 10128 10109 10089 10078 10066 10052 10037 10022 10009 9995 9983 9972 9960 9948 9937 9927 9916 9906 9896 9888 9879 9872 9866 9862 9857 9853 9850 9847
10272 10264 10254 10243 10232 10222 10209 10196 10184 10172 10159 10146 10132 10120 10105 10091 10077 10063 10049 10036 10024 10009 9994 9982 9969 9956 9946 9935 9924 9914 9904 9895 9886 9878 9870 9863 9856 9850 9846 9843 9839 9836 9834
10254 10243 10233 10221 10208 10196 10182 10170 10158 10144 10131 10119 10103 10090 10077 10061 10047 10033 10019 10005 9993 9980 9967 9956 9944 9931 9920 9910 9901 9892 9883 9874 9866 9859 9852 9847 9840 9835 9831 9829 9826 9823 9821
10232 10220 10207 10194 10181 10169 10155 10142 10128 10115 10102 10088 10074 10059 10046 10034 10020 10006 9991 9978 9965 9953 9941 9930 9919 9908 9898 9888 9879 9871 9863 9855 9847 9840 9835 9830 9826 9821 9818 9815 9812 9810 9808
10205 10193 10181 10168 10154 10139 10126 10114 10100 10087 10072 10057 10043 10029 10015 10002 9989 9977 9966 9953 9940 9927 9915 9905 9896 9885 9876 9867 9860 9852 9843 9836 9830 9824 9819 9815 9811 9807 9805 9802 9800 9798 9796
10179 10166 10152 10139 10125 10112 10098 10084 10069 10055 10041 10028 10014 10001 9988 9975 9963 9951 9940 9928 9915 9903 9892 9883 9873 9864 9855 9847 9840 9834 9827 9820 9813 9809 9804 9801 9797 9794 9792 9789 9787 9786 9785
10149 10135 10122 10109 10095 10081 10067 10052 10039 10025 10011 9998 9986 9974 9961 9950 9938 9926 9915 9903 9891 9880 9871 9862 9853 9844 9836 9829 9823 9816 9810 9804 9799 9795 9791 9787 9784 9782 9780 9778 9776 9775 9775
10119 10105 10092 10078 10063 10049 10035 10022 10008 9995 9984 9971 9959 9947 9935 9924 9913 9901 9890 9879 9869 9860 9851 9843 9834 9826 9820 9813 9807 9801 9795 9790 9786 9782 9778 9775 9773 9770 9768 9767 9766 9765 9765